Location: Ferma
(41.9500°N, 44.5167°E)
Time: 06:14:43
(UTC+00:00)

Cosmos 1269 Rocket - Pass Details

Date: 04 June 2022
Orbit: 773 x 778 km, 74.1° (Epoch: 03 July)

Event Time Altitude Azimuth Distance (km) Brightness Sun altitude
Rises 19:00:05 0° 358° (N) 3,258 8.3 -19.8°
Reaches altitude 10° 19:04:59 10° 38° (NE) 2,326 6.8 -20.2°
Maximum altitude 19:05:57 10° 49° (NE) 2,293 6.6 -20.3°
Drops below altitude 10° 19:06:55 10° 60° (ENE) 2,324 6.5 -20.4°
Enters shadow 19:09:21 - 83° (E) 2,659 6.6 -20.6°
